SCP
1 1 1 1 1 1 1 1 1 1 1 1 1 1 1 1 1 1 1 1 1 1 0 0 0 0 0 0 0 0 0 0 0 0 0 0 0 0 0 0 0 0 0
1 1 1 1 1 1 1 1 1 1 1 1 1 1 1 1 1 1 1 1 1 1 0 0 0 0 0 0 0 0 0 0 0 0 0 0 0 0 0 0 0 0 0
1 1 1 1 1 1 1 1 1 1 1 1 1 1 1 1 1 1 1 1 1 1 0 0 0 0 0 0 0 0 0 0 0 0 0 0 0 0 0 0 0 0 0
1 1 1 1 1 1 1 1 1 1 1 1 1 1 1 1 1 1 1 1 1 1 0 0 0 0 0 0 0 0 0 0 0 0 0 0 0 0 0 0 0 0 0
1 1 1 1 1 1 1 1 1 1 1 1 1 1 1 1 1 1 1 1 1 0 0 0 0 0 0 0 0 0 0 0 0 0 0 0 0 0 0 0 0 0 0
0 0 1 1 1 1 1 1 1 1 1 1 1 1 1 1 1 1 1 1 1 0 0 0 0 0 0 0 0 0 0 0 0 0 0 0 0 0 1 1 0 0 0
0 0 0 0 0 0 1 1 1 1 1 1 1 1 1 1 1 1 1 1 1 0 0 0 0 0 0 0 0 0 0 0 0 0 0 0 0 0 1 1 1 0 0
0 0 0 0 0 0 0 0 0 1 0 0 0 0 0 0 0 0 1 1 1 0 0 0 0 0 0 0 0 0 0 0 0 0 0 0 0 1 1 1 1 1 0
0 0 0 0 0 0 1 0 0 0 0 0 0 0 0 0 0 0 0 0 0 0 0 0 0 0 0 0 0 0 0 0 0 0 0 0 0 1 1 1 1 1 1
0 0 1 1 1 1 1 1 1 1 0 0 0 0 0 0 0 0 0 0 0 0 0 0 0 0 0 0 0 0 0 0 0 0 0 0 1 1 1 1 1 1 1
0 0 1 1 1 1 1 1 1 1 0 0 0 0 0 0 0 0 0 0 0 0 0 0 0 0 0 0 0 0 0 0 0 0 0 0 0 1 1 1 1 1 1
0 0 1 1 1 1 1 1 1 1 0 0 0 0 0 0 0 0 0 0 0 0 0 0 0 0 0 0 0 0 0 0 0 0 0 0 0 1 1 1 1 1 1
0 0 1 1 1 1 1 1 1 0 0 0 0 0 0 0 0 0 0 0 0 0 0 0 0 0 0 0 0 0 0 0 0 0 0 0 1 1 1 1 1 1 1
1 1 1 1 1 1 1 1 0 0 0 0 0 0 0 0 0 0 0 0 0 0 0 0 0 0 0 0 0 0 0 0 0 0 0 1 1 1 1 1 1 1 1
1 1 1 1 1 1 1 1 0 0 0 0 0 0 0 0 0 0 0 0 0 0 0 0 0 0 0 0 0 0 0 0 0 0 0 1 1 1 1 1 1 1 1
2 2 2 1 1 1 1 1 0 1 1 1 0 0 0 0 0 0 0 0 0 0 0 0 0 0 0 0 0 0 0 0 0 0 0 0 1 1 1 1 1 1 1
2 2 2 2 2 2 1 1 1 1 1 1 1 0 0 0 0 0 0 0 0 0 0 0 0 0 0 0 0 0 0 0 0 0 0 0 0 1 1 1 1 1 1
3 3 3 3 2 2 1 1 1 1 1 1 1 0 0 1 1 0 0 0 0 0 0 0 0 0 0 0 0 0 0 0 0 0 0 0 0 0 1 1 1 1 1
3 3 3 3 2 2 1 1 1 1 1 1 1 0 0 1 1 1 0 0 0 0 0 0 0 0 0 0 0 0 0 0 0 0 0 0 0 0 0 1 1 1 1
2 2 3 3 2 2 2 1 1 1 1 1 1 1 1 1 1 1 0 0 0 0 0 0 0 0 0 0 0 0 0 0 0 0 0 0 0 0 0 0 1 1 1
2 3 3 3 3 3 2 2 1 1 1 1 1 1 1 1 1 1 1 0 0 0 0 0 0 0 0 0 0 0 0 0 0 0 0 0 0 0 0 0 0 0 1
3 4 4 4 4 4 3 2 2 1 1 1 1 1 1 1 1 1 1 1 0 0 0 0 0 0 0 0 0 0 0 0 0 0 0 0 0 0 0 0 0 0 0
4 4 4 5 4 4 3 2 2 1 1 1 1 1 1 1 1 1 1 1 0 0 0 0 0 0 0 0 0 0 0 0 0 0 0 0 0 0 0 0 0 0 0
4 4 4 4 4 3 2 1 1 1 1 1 1 1 1 1 1 1 1 1 1 0 0 0 0 0 0 0 0 0 0 0 0 0 0 0 0 0 0 0 0 0 0
3 3 3 3 3 2 1 1 1 1 1 1 1 1 1 1 1 1 1 1 1 1 0 0 0 0 0 0 0 0 0 0 0 0 0 0 0 0 0 0 0 0 0
2 2 2 1 1 1 1 1 1 1 1 1 1 1 1 1 1 1 1 1 1 1 1 0 0 0 0 0 0 0 0 0 0 0 0 0 0 0 0 0 0 0 0
Wind_Speed
6 7 13 17 17 16 16 16 15 15 17 17 17 18 18 18 18 17 16 15 15 14 13 13 13 13 13 14 15 15 15 15 13 13 14 14 15 13 12 12 12 9 13
10 9 14 15 16 16 16 16 14 13 15 16 16 17 17 17 18 17 15 15 14 13 13 12 12 12 13 14 14 15 15 14 13 13 13 12 10 8 9 11 11 8 11
10 8 12 15 15 15 15 15 14 13 13 14 15 14 15 16 17 16 15 14 14 12 12 12 11 11 13 12 13 13 14 13 13 13 11 6 5 5 4 10 10 10 9
10 6 8 15 14 14 15 14 13 12 12 12 12 12 13 14 15 14 14 13 13 12 12 11 10 11 12 11 11 10 10 11 11 11 6 4 4 7 10 10 8 9 8
9 5 8 15 15 15 15 13 11 11 11 11 11 11 11 11 11 11 11 11 11 11 11 10 10 10 10 10 9 7 6 7 8 6 3 4 4 7 9 9 7 7 8
9 5 10 14 14 15 14 13 12 11 11 11 10 10 10 10 10 10 10 10 9 9 10 10 10 10 10 9 8 6 4 3 2 2 2 5 4 8 9 9 7 6 7
9 6 9 13 13 13 13 12 12 12 11 11 11 10 10 9 9 9 9 9 9 10 10 10 10 9 9 9 8 6 5 3 1 1 1 4 5 8 9 10 9 7 6
10 7 7 12 13 13 13 12 10 11 11 11 11 11 10 8 7 7 8 9 8 9 10 10 10 9 8 8 7 6 5 4 3 1 1 3 7 10 10 9 10 10 7
10 8 6 6 9 12 11 12 11 10 9 9 9 9 8 8 7 6 6 7 8 8 8 8 9 9 8 7 6 6 6 6 3 1 1 2 9 11 12 12 12 12 10
8 7 7 6 6 5 6 8 10 11 9 9 9 8 7 6 6 6 5 5 7 7 8 8 9 10 9 9 8 8 8 7 3 3 1 2 7 11 12 12 14 13 12
8 7 6 7 7 6 5 8 9 10 10 9 8 8 6 3 3 4 5 7 7 8 8 8 9 9 9 9 10 10 9 3 4 3 3 5 6 10 12 13 13 14 14
10 9 8 8 8 7 6 5 5 5 5 5 5 4 3 3 4 5 6 9 9 9 9 10 9 8 6 3 5 8 4 4 4 4 4 9 10 11 12 13 14 15 14
12 11 9 9 9 8 6 5 4 3 3 4 5 5 4 3 3 3 2 3 3 5 3 4 5 4 3 3 3 4 5 5 4 4 5 12 13 15 16 15 15 17 15
13 12 11 11 9 8 7 6 5 4 4 4 5 5 4 3 3 3 2 3 2 2 2 2 3 4 5 5 6 6 6 5 4 4 6 14 15 16 17 17 16 17 17
11 11 11 11 9 8 6 6 6 7 7 6 5 5 5 4 3 3 3 3 2 2 2 3 4 4 4 5 4 4 5 6 5 4 5 14 17 17 18 18 20 20 19
8 8 9 9 9 8 6 6 7 7 6 6 5 5 6 4 3 3 3 3 3 4 5 4 4 3 3 2 2 1 2 3 4 5 4 7 15 18 19 20 19 20 21
10 9 11 10 9 8 6 5 4 6 6 5 4 5 6 5 5 4 4 3 4 4 3 2 2 1 1 1 2 2 2 2 4 4 4 4 6 12 18 19 18 18 21
12 11 11 10 8 7 7 6 4 4 4 3 3 4 5 6 6 5 4 3 2 3 3 2 2 1 1 2 2 2 3 3 4 4 4 4 4 5 10 17 17 16 19
9 10 9 9 8 8 6 5 3 4 4 4 4 4 5 6 6 5 4 4 4 4 2 2 2 1 1 2 3 2 3 3 3 3 4 4 4 4 4 10 15 16 17
7 8 8 9 8 6 4 2 1 2 2 3 4 4 4 4 4 5 4 3 4 3 2 2 2 2 2 2 1 1 2 2 1 2 3 4 4 4 4 4 5 8 14
9 10 12 12 9 6 3 2 2 2 2 2 3 4 4 3 3 5 3 3 3 4 5 5 3 2 2 1 1 1 3 3 2 2 2 3 3 4 4 4 3 3 5
13 12 8 8 8 6 3 2 2 2 2 2 2 4 5 5 4 5 5 4 4 3 4 4 3 2 2 3 2 0 2 3 3 2 3 3 3 2 2 2 3 2 3
10 8 8 10 10 6 2 2 2 1 1 1 1 3 5 6 7 6 5 4 3 3 4 4 4 4 3 3 3 2 1 3 2 3 3 3 3 2 2 2 2 2 2
9 8 8 7 8 11 0 2 3 3 3 3 2 3 3 4 6 6 5 5 3 2 3 4 4 3 3 2 2 4 3 2 1 3 3 3 3 2 2 1 2 3 3
7 7 4 5 8 8 4 2 1 1 1 1 1 1 1 1 2 3 4 5 4 3 3 4 3 3 3 3 2 1 1 2 1 1 3 3 3 3 2 1 1 2 2
6 5 6 6 3 2 1 2 2 4 2 2 2 2 1 2 3 4 4 3 2 2 3 4 4 4 4 2 2 2 2 2 1 2 1 1 2 3 3 2 1 1 1
Wind_Direction
143 154 134 123 125 127 126 124 121 119 117 116 115 110 109 109 108 108 110 110 106 102 100 99 97 104 112 113 111 108 105 104 109 114 116 110 109 112 106 100 95 94 94
144 147 136 129 127 131 130 130 130 126 124 123 123 118 114 112 114 115 114 112 108 105 104 101 100 104 114 116 117 115 112 110 110 110 107 104 103 102 109 110 104 99 96
131 137 133 128 129 132 134 134 136 135 130 129 129 128 125 122 123 124 119 116 114 110 106 106 107 104 115 118 121 122 121 120 119 115 104 87 77 70 126 127 119 112 104
120 118 126 124 126 130 135 138 137 136 136 137 135 135 134 132 130 127 124 123 123 119 116 116 118 115 118 119 118 123 128 131 129 122 119 128 109 103 118 130 133 127 119
110 109 123 124 122 122 126 134 137 139 140 142 144 143 141 139 135 130 129 129 129 130 130 130 130 129 126 125 120 116 122 130 137 130 147 155 137 128 137 138 151 144 133
110 102 117 121 118 118 120 125 125 124 132 140 149 155 153 151 149 143 141 144 145 144 143 143 144 145 142 137 136 135 132 139 125 50 149 171 157 156 158 153 166 168 145
115 108 117 122 123 123 124 125 127 126 127 131 137 146 151 154 159 159 157 160 162 162 159 155 159 160 158 156 156 156 162 197 202 311 197 185 172 169 168 166 166 174 166
118 108 114 125 129 136 134 129 128 133 133 132 130 134 137 136 143 155 163 168 175 176 176 176 176 174 175 174 172 177 186 211 236 300 274 190 181 182 177 174 164 172 182
127 123 118 126 137 139 141 147 146 138 141 140 140 142 143 146 147 149 157 169 179 189 192 195 195 194 195 195 194 202 212 222 242 270 334 209 194 190 184 177 168 172 184
133 136 138 143 133 136 145 146 150 152 159 157 158 160 162 164 166 170 176 185 183 192 205 211 214 217 212 207 213 225 232 240 250 261 246 258 224 201 192 186 177 178 185
151 154 154 156 153 158 164 165 163 165 174 176 177 179 177 186 198 194 191 204 200 201 208 216 221 227 228 224 221 229 242 242 247 252 245 239 242 214 199 197 188 185 188
166 165 174 175 169 169 174 163 170 178 180 189 193 200 194 205 224 219 206 211 211 214 212 213 219 225 229 234 240 235 228 229 238 238 241 245 226 212 210 209 198 190 188
169 170 182 187 177 179 178 168 177 183 181 198 208 211 208 215 229 232 208 205 202 224 226 227 224 226 225 222 238 235 220 218 228 236 238 238 227 217 224 229 210 192 189
169 178 185 187 183 186 176 177 182 182 184 199 217 211 202 204 207 215 192 199 187 221 223 223 233 233 231 228 233 237 223 210 220 228 239 241 230 232 232 226 210 197 191
161 171 177 182 176 178 175 179 186 189 191 197 203 203 189 179 191 208 198 208 213 210 223 221 217 229 238 244 244 224 217 216 222 230 227 237 235 233 235 218 213 209 200
161 164 160 176 175 175 179 184 187 191 187 186 190 202 186 166 158 169 164 201 218 214 212 207 203 208 234 242 238 232 242 240 235 234 230 237 240 234 233 235 233 214 209
175 172 161 171 175 176 169 172 179 174 175 185 192 190 177 171 168 169 167 190 194 192 193 180 185 174 178 238 275 282 270 260 261 260 250 243 248 247 241 238 238 222 218
175 178 169 169 171 174 174 169 178 162 161 182 197 188 188 183 174 172 178 182 176 141 142 168 190 206 237 257 278 295 292 284 272 266 265 257 240 239 246 243 235 226 222
180 177 173 166 170 172 183 176 169 159 163 186 200 202 206 202 180 171 181 170 159 148 157 178 199 201 217 247 260 267 283 286 285 281 288 285 276 255 231 245 241 228 222
170 159 169 162 160 158 159 161 172 157 182 193 206 207 217 220 192 168 169 168 157 159 185 205 196 211 203 216 249 269 293 313 331 340 313 309 303 291 264 245 253 238 225
152 157 173 158 146 134 142 158 176 193 182 192 206 217 219 230 209 167 160 171 170 174 191 204 188 202 220 190 145 315 306 312 322 323 323 328 321 323 321 281 253 246 233
169 166 156 134 142 148 163 182 180 196 177 169 193 222 215 198 190 167 170 181 183 168 186 202 181 179 224 212 175 159 309 304 290 311 336 346 328 310 313 314 297 264 261
166 152 142 164 157 135 201 166 127 56 67 116 219 228 213 192 187 179 190 190 184 180 199 211 201 188 207 238 218 182 219 269 307 315 318 342 328 309 326 338 338 330 305
156 140 164 168 118 96 29 243 149 157 186 202 201 227 236 206 192 188 190 183 182 192 217 221 209 187 177 221 237 230 231 223 230 292 302 324 336 327 333 14 12 348 343
136 132 130 81 87 109 161 213 96 131 203 192 176 208 212 200 189 151 175 167 166 184 215 232 214 194 191 189 206 232 233 253 235 218 278 309 324 318 317 326 340 337 353
60 64 66 65 54 86 70 26 107 105 145 138 148 168 133 101 84 77 77 120 154 202 220 231 231 206 207 176 176 219 205 182 208 202 212 269 293 294 285 296 279 319 18